Location: Rantue
(62.2667°N, 25.7333°E)
Time: 01:33:50
(UTC+00:00)

Daily predictions for brighter satellites

Satellite Brightness Start Highest point End
(mag) Time Altitude Azimuth Time Altitude Azimuth Time Altitude Azimuth
Cosmos 1151 Rocket 4.1 00:04:19 35° ESE 00:05:01 37° E 00:09:04 10° NNE
UNK 4.3 00:08:08 45° WNW 00:08:08 45° WNW 00:11:42 10° NNW
Cosmos 1943 Rocket 3.3 00:05:34 20° WNW 00:08:49 38° NNW 00:14:00 10° NE
SL-8 Rocket 4.3 00:03:05 10° NNW 00:09:03 47° W 00:09:32 46° WSW
Cosmos 1633 Rocket 3.3 00:04:54 10° NNW 00:08:36 60° NW 00:08:36 60° NW
Cosmos 1934 Rocket 4.2 00:04:01 10° NNW 00:10:04 64° ENE 00:14:20 20° SSE
CZ-3B R/B 4.3 00:11:50 15° SE 00:12:11 15° ESE 00:15:44 10° E
NPP 4.0 00:06:53 10° NNE 00:12:14 57° ESE 00:13:43 43° SSE
ATLAS 2AS CENTAUR R/B 2.8 00:05:25 10° WNW 00:13:16 82° SSW 00:20:34 10° ESE
Meteor 1-22 4.5 00:08:39 10° NNW 00:14:08 75° WSW 00:14:49 65° SSW
IRAS Rocket 4.2 00:14:34 60° SW 00:15:04 62° WSW 00:20:38 10° NNW
ATLAS 5 CENTAUR R/B 1.7 00:16:03 71° SSE 00:16:03 71° SSE 00:21:14 10° ENE
Cosmos 292 Rocket 4.0 00:16:02 54° WNW 00:16:27 56° NW 00:21:11 10° NNE
Cosmos 1933 Rocket 3.7 00:14:47 10° NNW 00:19:10 70° ENE 00:19:51 58° SE
Cosmos 1666 Rocket 4.1 00:15:34 10° NNW 00:19:07 47° WNW 00:19:07 47° WNW
Cosmos 990 Rocket 4.0 00:19:26 10° NW 00:24:41 80° NE 00:29:55 10° SE
CZ-4 R/B 4.4 00:20:23 10° NNE 00:25:00 45° WNW 00:25:27 43° WNW
Cosmos 2366 rocket 4.3 00:20:45 10° NNW 00:26:41 45° W 00:27:26 43° WSW
Meteor 1-20 Rocket 4.1 00:23:08 10° NNW 00:28:36 67° WSW 00:29:27 57° SSW
Cosmos 1933 3.7 00:28:30 55° ESE 00:28:50 57° E 00:32:51 10° NNE
Cosmos 1606 2.8 00:31:07 72° NE 00:31:07 72° NE 00:34:37 10° NNE
Genesis I 3.3 00:32:49 71° E 00:32:49 71° E 00:36:20 10° ENE
ADEOS II 2.8 00:29:51 10° NNE 00:34:59 49° E 00:37:23 29° SSE
Meteor 1-14 Rocket 4.1 00:29:21 10° NNW 00:35:02 90° W 00:37:52 31° SSE
RESURS DK-1 4.1 00:31:43 10° NW 00:35:30 32° NNE 00:39:18 10° ENE
CZ-4C R/B 2.6 00:30:27 17° WNW 00:35:35 87° NNE 00:43:13 10° ESE
IDEFIX/ARIANE 42P 4.3 00:32:14 10° NNE 00:36:46 28° E 00:41:16 10° SSE
Cosmos 1869 Rocket 4.2 00:35:04 10° N 00:39:21 53° ENE 00:42:39 16° SE
SJ 16-02 1.2 00:35:00 10° NW 00:39:20 73° WSW 00:39:20 73° WSW
Cosmos 2369 4.2 00:38:42 36° S 00:40:39 52° ESE 00:46:13 10° NE
Cosmos 2297 Rocket 4.3 00:37:34 10° WNW 00:38:13 12° WNW 00:38:13 12° WNW
USA 234 3.4 00:35:13 10° SE 00:41:32 49° SSW 00:43:28 38° WSW
Cosmos 1605 Rocket 4.2 00:38:05 10° NNW 00:44:30 73° ENE 00:50:55 10° SSE
Cosmos 2221 3.6 00:45:57 31° WNW 00:46:01 31° WNW 00:49:56 10° N
Nadezhda 3 Rocket 4.1 00:43:12 32° S 00:46:14 74° E 00:52:25 10° NNE
Cosmos 1535 Rocket 4.5 00:40:35 10° NNW 00:47:01 88° WSW 00:51:51 19° S
COSMOS 2455 3.4 00:42:07 10° WNW 00:48:07 60° NNE 00:54:08 10° E
Cosmos 1238 Rocket 3.9 00:43:25 10° NNW 00:50:07 86° WSW 00:54:28 21° S
NOSS 2-1 (C) 3.1 00:50:48 78° W 00:51:04 88° NNW 00:55:36 10° ENE
CZ-4B R/B 3.8 00:47:14 10° NNE 00:52:19 63° ESE 00:54:40 32° S
Cosmos 1241 Rocket 4.5 00:52:41 40° WSW 00:55:14 90° SSE 01:01:48 10° ENE
Cosmos 389 Rocket 3.6 00:54:26 33° SE 00:55:20 40° E 00:58:45 10° NNE
NOSS 2-1 (D) 3.1 00:55:43 71° W 00:56:07 86° NNW 01:00:40 10° ENE
Cosmos 2369 Rocket 3.5 00:52:18 15° WNW 00:56:30 36° N 01:01:47 10° ENE
SL-19 R/B 4.3 00:52:40 10° NNE 00:57:48 59° WNW 00:59:17 43° WSW
Meteor 1-28 Rocket 3.2 00:58:15 62° WNW 00:58:15 62° WNW 01:01:37 10° NNW
Cosmos 2228 Rocket 4.4 00:55:43 17° SSE 00:58:36 38° E 01:02:44 10° NNE
USA 305 4.5 01:00:18 22° SSE 01:00:18 22° SSE 01:03:08 10° ESE
Cosmos 1697 Rocket 2.8 00:59:13 38° SSW 01:01:20 69° SE 01:06:56 10° NE
Cosmos 372 Rocket 4.4 00:56:32 10° NW 01:01:43 65° NE 01:06:50 10° SE
Cosmos 1782 3.2 01:01:01 39° SSE 01:02:17 59° E 01:06:17 10° NNE
Cosmos 2263 Rocket 2.4 00:57:10 10° NW 01:02:32 45° WSW 01:03:49 39° SSW
Iridium 2 4.4 01:01:46 31° SSE 01:03:14 50° E 01:06:55 10° NNE
Celestis-02/Orion 38 4.4 00:58:10 10° SSE 01:03:21 72° SW 01:08:29 10° NW
USA 306 4.4 01:04:33 23° SSE 01:04:33 23° SSE 01:07:33 10° ESE
H-2A R/B 2.8 01:00:27 10° SE 01:04:50 57° ENE 01:09:18 10° NNW
Cosmos 1992 Rocket 4.1 01:03:14 42° WSW 01:04:51 64° NW 01:10:04 10° NE
Cosmos 1844 Rocket 2.7 01:01:18 10° NW 01:06:59 82° NE 01:12:40 10° SE
Cosmos 2181 Rocket 4.4 01:05:10 35° WSW 01:07:18 48° WNW 01:13:23 10° NNE
ASTEX 1 3.8 01:03:09 10° N 01:08:09 62° E 01:11:56 17° S
Cosmos 1980 Rocket 2.7 01:05:33 28° S 01:08:21 52° ESE 01:13:50 10° NE
Cosmos 2278 Rocket 3.3 01:05:38 10° NW 01:11:06 46° NNE 01:16:33 10° E
Cosmos 2360 4.4 01:09:10 32° SSW 01:11:47 66° SE 01:17:29 10° NE
Cosmos 1898 Rocket 3.4 01:07:18 10° NW 01:12:30 63° WSW 01:17:42 10° SSE
Cosmos 220 Rocket 4.1 01:11:56 49° WSW 01:12:50 64° NW 01:17:10 10° NNE
Cosmos 972 Rocket 3.9 01:11:55 37° SSW 01:13:54 78° ESE 01:19:05 10° NNE
Meteor 1-11 Rocket 3.9 01:08:34 10° NNW 01:14:26 78° ENE 01:20:08 10° SSE
Cosmos 1656 3.6 01:12:56 38° WSW 01:15:06 77° NW 01:20:44 10° NE
Cosmos 1844 3.7 01:09:41 10° NW 01:15:20 81° NE 01:20:55 10° SE
Cosmos 1500 3.0 01:11:30 10° NNW 01:15:22 74° WSW 01:16:12 51° S
Cosmos 2322 Rocket 4.1 01:13:52 10° SSE 01:18:20 24° ESE 01:22:50 10° NE
Cosmos 858 Rocket 4.4 01:14:04 10° NW 01:19:15 71° WSW 01:24:26 10° SSE
SL-08 R/B 3.4 01:18:49 40° SSW 01:20:03 51° WSW 01:24:35 10° NNW
Cosmos 1470 Rocket 4.3 01:16:01 10° NNW 01:19:55 35° W 01:19:55 35° W
IRS-1C 4.4 01:14:55 10° NNE 01:20:17 67° ESE 01:23:58 20° S
Cosmos 1666 2.9 01:16:33 10° NNW 01:20:25 71° ENE 01:24:12 10° SSE
Helios 1B rocket 4.0 01:18:39 10° N 01:21:56 23° NW 01:22:41 22° WNW
AQUA 3.9 01:18:01 10° NNE 01:22:45 63° WNW 01:24:26 38° SW
Cosmos 1818 3.6 01:20:27 34° WSW 01:22:55 83° NNW 01:28:26 10° ENE
Lacrosse 5 2.6 01:22:28 31° SSW 01:23:55 38° SSE 01:28:36 10° E
Cosmos 2100 Rocket 4.5 01:18:04 10° NNW 01:24:26 65° ENE 01:30:47 10° SSE
Resurs 1-4 Rocket 2.4 01:19:46 10° NNE 01:24:53 52° WNW 01:26:56 33° WSW
Cosmos 2298 Rocket 4.4 01:20:03 10° NW 01:25:24 68° NE 01:30:42 10° SE
IRIDIUM 104 4.5 01:21:57 10° N 01:27:13 76° E 01:32:27 10° SSE
Cosmos 1459 Rocket 4.4 01:22:48 10° NNW 01:28:54 63° ENE 01:34:55 10° SSE
SL-16 R/B 3.7 01:25:10 10° S 01:30:05 31° ESE 01:35:02 10° NE
Cosmos 921 Rocket 3.8 01:28:18 21° S 01:30:49 45° ESE 01:34:53 10° NE
CZ-2D R/B 2.5 01:26:18 10° NNE 01:31:26 49° WNW 01:33:36 31° WSW
Cosmos 1937 Rocket 3.4 01:27:03 10° NW 01:32:09 60° WSW 01:37:11 10° SSE
USA 307 4.2 01:32:42 25° S 01:33:14 25° S 01:36:45 10° ESE
Cosmos 405 4.0 01:34:03 30° WNW 01:34:13 30° WNW 01:37:23 10° N
Cosmos 1812 3.5 01:33:08 16° S 01:35:58 51° E 01:39:45 10° NNE
SL-16 R/B 3.8 01:35:43 20° W 01:36:08 21° W 01:40:39 10° NW
IRIDIUM 114 4.3 01:31:07 10° N 01:36:23 85° E 01:41:38 10° S
USA 308 4.1 01:35:56 25° S 01:36:35 26° S 01:40:07 10° ESE
NOSS 3-4 (A) 4.0 01:33:50 10° WNW 01:40:09 45° SW 01:47:08 10° SSE
NOSS 3-4 (C) 4.0 01:33:57 10° WNW 01:40:16 45° SW 01:47:16 10° SSE
Cosmos 1151 Rocket 3.4 01:41:11 34° WSW 01:42:33 46° WNW 01:46:48 10° N
Cosmos 1536 2.8 01:40:28 10° NNW 01:44:35 87° ENE 01:48:40 10° SSE
USA 32 4.1 01:39:25 10° N 01:44:44 82° E 01:50:00 10° SSE
Cosmos 1125 Rocket 4.0 01:39:44 10° NW 01:45:03 65° NE 01:50:19 10° SE
IRIDIUM 103 4.3 01:40:17 10° N 01:45:33 85° W 01:50:47 10° S
ARIANE 5 R/B 2.6 01:40:51 10° NNE 01:46:00 79° ESE 01:50:05 16° SSW
USA-17 4.4 01:45:55 41° W 01:46:48 58° SSW 01:50:38 10° SE
CZ-2D R/B 3.9 01:42:52 10° NNE 01:47:05 65° ESE 01:50:45 14° S
Cosmos 1515 Rocket 3.6 01:45:17 30° SW 01:47:22 64° WNW 01:51:47 10° NNE
NOSS 2-1 (E) 3.5 01:46:40 28° W 01:48:40 77° N 01:53:40 10° E
Meteor 1-26 Rocket 4.1 01:45:39 25° SW 01:48:52 68° WNW 01:54:21 10° NNE
CZ-4C R/B 2.9 01:46:23 10° S 01:49:54 69° WSW 01:53:23 10° NNW
NPP 4.2 01:47:19 10° NNE 01:52:26 44° NW 01:55:11 25° WSW
Cosmos 1328 Rocket 4.1 01:51:11 30° WSW 01:52:52 43° WNW 01:57:08 10° N
Cosmos 2150 Rocket 4.1 01:47:32 10° NW 01:53:04 87° NE 01:58:32 10° SE
Cosmos 1943 Rocket 3.5 01:48:41 10° NW 01:53:49 36° N 01:58:55 10° ENE
Meteor 1-5 Rocket 4.3 01:49:19 10° NNW 01:54:26 48° W 01:59:35 10° S
Cosmos 1934 Rocket 4.4 01:49:33 10° NNW 01:55:06 39° W 01:58:47 20° SW
ADEOS Rocket 3.0 01:49:07 10° SSE 01:55:24 83° ENE 02:01:10 10° NNW
MSX 4.3 01:52:17 10° NNE 01:58:03 64° ESE 02:03:48 10° S
IRS-1D 3.8 01:53:37 10° NNE 01:58:51 55° WNW 02:02:08 22° SW
IRS-P3 4.1 01:54:10 10° NNE 01:59:32 74° WNW 02:03:31 18° SSW
ATLAS 5 CENTAUR R/B 2.0 01:57:35 22° W 02:00:45 79° N 02:06:21 10° E
Cosmos 1707 Rocket 4.3 01:56:44 10° S 02:00:58 53° E 02:05:15 10° NNE
CBERS-1 4.2 01:57:05 10° NNE 02:02:05 54° WNW 02:05:13 22° SW
ATLAS 2AS CENTAUR R/B 3.2 01:56:37 10° WNW 02:03:44 43° SW 02:10:21 10° SSE
IRIDIUM 106 4.3 01:58:39 10° N 02:03:52 67° W 02:09:02 10° S
Cosmos 1933 4.4 02:04:20 24° W 02:05:40 29° WNW 02:09:17 10° N
Cosmos 1733 Rocket 2.9 02:01:59 10° NNW 02:06:23 81° WSW 02:10:43 10° S
Cosmos 2173 Rocket 4.0 02:00:18 10° NNW 02:06:40 86° W 02:13:03 10° S
Cosmos 1606 4.2 02:06:08 19° WNW 02:07:02 21° NW 02:09:57 10° N
Genesis I 3.5 02:07:42 20° W 02:10:12 61° N 02:14:05 10° E
Cosmos 1544 3.8 02:07:01 10° N 02:10:35 55° ENE 02:14:07 10° SSE
Cosmos 1743 2.9 02:07:19 10° NNW 02:11:09 75° ENE 02:14:58 10° SSE
ERS-2 2.0 02:07:37 10° SSE 02:11:17 71° WSW 02:14:59 10° NNW
CZ-4B R/B 1.7 02:08:06 10° SSE 02:11:21 69° ENE 02:14:44 10° NNW
Cosmos 44 3.4 02:08:32 21° SW 02:11:33 64° SE 02:16:23 10° ENE
Exosat Rocket 4.1 02:06:07 10° NW 02:11:51 86° SW 02:19:47 10° SE
Cosmos 192 4.3 02:09:19 20° SW 02:12:49 82° NW 02:17:48 10° NE
RESURS DK-1 2.8 02:10:00 10° NW 02:14:10 66° NE 02:18:20 10° ESE
Cosmos 2278 3.7 02:10:19 20° SW 02:14:25 80° NW 02:20:10 10° NE
ADEOS II 2.5 02:09:42 10° NNE 02:14:46 48° WNW 02:18:19 19° SW
Cosmos 2285 Rocket 4.2 02:08:46 10° NW 02:15:13 79° NE 02:21:41 10° SE
Meteor 1-10 Rocket 4.4 02:10:05 10° SSW 02:15:58 87° ESE 02:21:58 10° NNE
Meteor 2-6 Rocket 4.3 02:10:11 10° SSW 02:16:00 83° WNW 02:22:00 10° NNE
IDEFIX/ARIANE 42P 2.6 02:11:39 10° NNE 02:16:58 82° WNW 02:22:15 10° SSW
Cosmos 1869 Rocket 4.3 02:13:12 10° NNW 02:17:05 32° W 02:19:44 17° SW
SJ 16-02 3.0 02:14:27 10° WNW 02:16:14 16° W 02:16:14 16° W
CZ-2C R/B 2.8 02:15:25 10° NNE 02:19:13 79° ESE 02:23:04 10° SSW
PSLV R/B 4.4 02:16:58 10° NNE 02:21:06 50° E 02:25:12 10° S
Landsat 5 3.9 02:18:54 10° S 02:23:10 43° W 02:27:22 10° NNW
CZ-4C R/B 2.9 02:17:41 10° WNW 02:24:09 59° SW 02:31:51 10° SE
Cosmos 2369 3.9 02:20:39 18° WSW 02:24:52 62° NW 02:30:35 10° NE
SL-4 R/B 4.5 02:22:24 10° SSW 02:25:16 16° SSE 02:28:13 10° ESE
Cosmos 468 Rocket 4.3 02:20:02 10° SSW 02:25:17 69° ESE 02:30:31 10° NE
USA 234 4.1 02:20:12 10° SSE 02:25:40 28° SW 02:30:48 11° W
Cosmos 389 Rocket 3.4 02:28:18 21° WSW 02:30:07 33° WNW 02:33:27 10° N
COSMOS 2441 4.4 02:25:39 10° NNE 02:30:37 90° WNW 02:35:33 10° SSW
CZ-4B R/B 4.2 02:26:11 10° NNE 02:30:52 39° NW 02:34:35 16° WSW
ALOS 4.1 02:28:54 10° NNE 02:33:11 34° E 02:37:26 10° SSE
COSMOS 2455 2.8 02:28:21 10° NW 02:34:26 80° SW 02:40:29 10° SE
Cosmos 1862 Rocket 4.2 02:31:31 10° S 02:35:47 58° E 02:40:04 10° NNE
Cosmos 2228 Rocket 3.4 02:33:14 14° SW 02:36:47 46° WNW 02:41:07 10° N
Cosmos 2016 Rocket 3.9 02:32:21 10° NNW 02:38:30 77° W 02:44:36 10° S
Cosmos 1782 3.9 02:36:39 17° WSW 02:38:55 28° WNW 02:42:27 10° N
USA 305 4.2 02:36:27 16° SW 02:39:00 27° S 02:42:36 10° SE
CZ-2C R/B 2.9 02:35:10 10° NNE 02:40:18 70° ESE 02:45:29 10° S
H-2A R/B 2.8 02:37:00 10° SSW 02:41:04 34° W 02:45:12 10° NNW
NOSS 2-1 (C) 3.6 02:38:08 12° WNW 02:41:42 82° N 02:46:57 10° E
Cosmos 2369 Rocket 3.5 02:36:28 10° NW 02:41:49 39° NNE 02:47:11 10° E
Cosmos 2360 Rocket 3.4 02:36:52 10° S 02:42:11 43° ESE 02:47:31 10° NE
Cosmos 372 Rocket 4.4 02:38:32 10° NW 02:43:18 38° WSW 02:48:00 10° S
USA 306 4.2 02:40:42 15° SW 02:43:24 27° S 02:46:59 10° SE
Cosmos 1975 3.0 02:39:51 10° NNW 02:43:55 78° ENE 02:47:57 10° SSE
SAR-Lupe-4 3.5 02:40:57 10° S 02:44:32 69° WSW 02:48:09 10° NNW
PSLV R/B 4.3 02:40:42 10° SSE 02:44:47 72° ENE 02:48:56 10° NNW
Cosmos 2061 Rocket 4.0 02:38:30 10° NNW 02:44:57 73° W 02:51:22 10° S
Cosmos 2263 Rocket 3.8 02:42:43 10° WNW 02:45:10 13° W 02:45:20 13° W
ATLAS CENTAUR R/B 3.8 02:34:37 10° WNW 02:45:22 40° SW 02:49:53 10° SSE
Cosmos 1697 Rocket 3.2 02:40:57 14° WSW 02:45:36 50° NNW 02:51:07 10° NE
NOSS 2-1 (D) 3.6 02:43:03 11° WNW 02:46:46 83° NNE 02:52:01 10° E
ASTEX 1 4.2 02:42:28 10° N 02:46:58 34° WNW 02:51:25 10° SW
Cosmos 2233 Rocket 4.1 02:42:02 10° NNW 02:48:13 81° ENE 02:54:23 10° SSE
Cosmos 1689 Rocket 2.2 02:45:39 10° SSE 02:48:38 78° ENE 02:51:39 10° NNW
Cosmos 2297 4.5 02:44:36 10° NW 02:50:10 54° NNE 02:55:43 10° ESE
Meteor 1-4 Rocket 2.7 02:46:55 10° SW 02:50:19 50° WNW 02:53:52 10° NNE
Cosmos 1844 Rocket 3.3 02:45:29 10° NW 02:50:30 34° WSW 02:55:32 10° S
Cosmos 1980 Rocket 2.4 02:47:19 13° WSW 02:52:23 61° NW 02:58:01 10° NE
Cosmos 1484 Rocket 4.1 02:49:58 10° NNE 02:53:50 44° E 02:57:41 10° S
Spot 4 Rocket 4.2 02:49:53 10° NNE 02:54:56 55° WNW 02:59:57 10° SW
Cosmos 1666 4.0 02:52:44 10° NW 02:55:36 20° W 02:58:28 10° SW
Cosmos 2278 Rocket 2.2 02:49:58 10° NW 02:55:41 82° SW 03:01:21 10° SE
Okean 2 Rocket 4.4 02:54:48 10° N 02:59:06 46° ENE 03:03:20 10° SE
Cosmos 1844 4.2 02:54:06 10° NW 02:59:06 34° WSW 03:04:03 10° S
Cosmos 1864 Rocket 4.5 02:53:38 10° NNW 02:59:53 68° W 03:06:02 10° S
Cosmos 1725 Rocket 4.0 02:54:57 10° NNW 03:01:07 68° W 03:07:13 10° S
Cosmos 2322 Rocket 2.4 02:55:58 10° SSW 03:01:39 76° SE 03:07:24 10° NE
SAR-Lupe-1 4.2 03:00:09 10° S 03:03:39 50° WSW 03:07:11 10° NNW
Resurs 1-4 Rocket 3.7 03:00:05 10° N 03:03:49 20° NW 03:07:32 10° W
Meteor 2-9 Rocket 4.1 02:59:18 10° NNW 03:04:51 73° WSW 03:10:15 10° S
EP 3 4.0 03:03:37 12° WNW 03:05:27 67° N 03:07:54 10° E
Lacrosse 5 2.4 03:01:39 11° WSW 03:06:19 48° S 03:11:11 10° ESE
Meteor 1-31 Rocket 4.0 03:03:03 10° NNE 03:06:47 45° E 03:10:29 10° S
Cosmos 1818 3.9 03:01:26 10° W 03:06:53 66° N 03:12:21 10° E
Cosmos 921 Rocket 3.5 03:05:11 10° WSW 03:09:11 42° NW 03:13:16 10° NNE
Cosmos 2100 Rocket 4.5 03:03:49 10° NNW 03:09:43 41° W 03:15:36 10° SSW
CZ-2D R/B 3.8 03:06:50 10° N 03:10:31 19° NW 03:14:10 10° W
Cosmos 1812 3.7 03:08:33 10° WSW 03:11:59 30° WNW 03:15:26 10° N
Aureole 2 Rocket 2.0 03:09:03 10° NW 03:12:11 80° SW 03:15:08 10° SSE
deb Chang Zheng 4 4.0 03:07:53 10° NNE 03:12:12 66° ESE 03:16:28 10° S
USA 307 4.3 03:08:58 10° WSW 03:12:29 25° S 03:15:59 10° SE
Okean 1 3.7 03:09:38 10° S 03:13:40 71° ESE 03:17:44 10° NNE
SL-16 R/B 2.3 03:08:02 10° SW 03:13:44 87° NW 03:19:28 10° NE
Cosmos 1459 Rocket 4.4 03:08:20 10° NNW 03:13:57 40° W 03:19:31 10° SSW
COSMO-SKYMED 1 2.5 03:10:12 10° SSE 03:14:34 75° WSW 03:18:56 10° NNW
Intercosmos 25 3.1 03:11:19 10° S 03:14:34 76° E 03:17:58 10° NNE
Meteor 1-27 Rocket 3.9 03:09:08 10° SSW 03:15:01 64° WNW 03:20:51 10° NNE
ERBS 3.6 03:12:44 10° SW 03:15:44 30° SSE 03:18:44 10° ESE
USA 308 4.3 03:12:18 10° WSW 03:15:50 25° SSW 03:19:20 10° SE
Cosmos 1727 Rocket 4.3 03:13:05 10° SW 03:19:15 52° WNW 03:25:25 10° NNE
Cosmos 1802 Rocket 4.3 03:14:15 10° NNW 03:20:03 43° W 03:25:52 10° SSW
Cosmos 1782 Rocket 3.6 03:15:40 10° NNW 03:20:09 70° W 03:24:37 10° S
Cosmos 1536 4.3 03:17:37 10° NW 03:20:29 19° W 03:23:21 10° SW
SJ-6F 4.5 03:16:25 10° NNE 03:20:34 88° ESE 03:24:40 10° SSW
Cosmos 1437 Rocket 2.8 03:16:48 10° SSW 03:20:39 83° ESE 03:24:36 10° NNE
Cosmos 1908 Rocket 3.9 03:17:04 10° NNW 03:21:21 46° W 03:25:38 10° SSW
CZ-2C R/B 4.3 03:17:26 10° ESE 03:22:20 38° NE 03:27:22 10° NNW
CZ-2D R/B 4.5 03:18:50 10° N 03:22:30 30° NW 03:26:15 10° WSW
USA 116 3.8 03:20:10 10° SSE 03:23:15 61° ENE 03:26:24 10° NNW
ARIANE 5 R/B 3.4 03:20:17 10° N 03:24:47 32° NW 03:29:13 10° WSW
Cosmos 1125 Rocket 4.0 03:22:04 10° NW 03:26:58 39° WSW 03:31:49 10° S
Cosmos 841 Rocket 3.6 03:22:00 10° SSW 03:27:17 90° SE 03:32:37 10° NE
USA 267 4.0 03:22:15 10° E 03:28:35 48° SSE 03:34:53 10° SW
